This demonstration page uses our WeatherBlox Daily Observations layout. Learn more.

Left ArrowRight Arrow

39.51506, -84.39828

Hourly Observations for February 26, 2018

Temp ( °F °C ) Dew Point ( °F °C ) Humidity (%) Winds ( mph kmh ) Pressure ( in mb ) Visibility ( mi km ) Precip ( " mm )
12:15 am 00:15 Clear 37 2.8 35 1.7 93 93 Calm 30.24 1024 10 16 0.00 0.00
12:35 am 00:35 Clear 36 2.4 35 1.7 95 95 Calm 30.24 1024 10 16 0.00 0.00
12:55 am 00:55 Clear 36 2 34 1.2 95 95 Calm 30.24 1024 10 16 0.00 0.00
1:15 am 01:15 Clear 36 2.3 34 1.2 93 93 Calm 30.24 1024 10 16 0.00 0.00
1:35 am 01:35 Clear 36 2.1 34 0.9 92 92 Calm 30.24 1024 10 16 0.00 0.00
1:55 am 01:55 Clear 34 1.1 32 0.2 94 94 Calm 30.24 1024 10 16 0.00 0.00
2:15 am 02:15 Clear 35 1.6 33 0.7 94 94 Calm 30.24 1024 10 16 0.00 0.00
2:35 am 02:35 Clear 34 1.2 33 0.5 95 95 Calm 30.27 1025 10 16 0.00 0.00
2:55 am 02:55 Clear 34 0.9 32 0.2 95 95 Calm 30.24 1024 10 16 0.00 0.00
3:15 am 03:15 Clear 33 0.8 32 0 94 94 Calm 30.27 1025 10 16 0.00 0.00
3:35 am 03:35 Clear 33 0.4 31 -0.3 95 95 N 3 6 30.24 1024 10 16 0.00 0.00
3:55 am 03:55 Clear 32 0 31 -0.5 96 96 Calm 30.24 1024 10 16 0.00 0.00
4:15 am 04:15 Clear 30 -0.9 29 -1.4 96 96 Calm 30.24 1024 10 16 0.00 0.00
4:35 am 04:35 Clear 31 -0.7 30 -1 98 98 Calm 30.27 1025 10 16 0.00 0.00
4:55 am 04:55 Clear 31 -0.5 30 -0.9 97 97 Calm 30.27 1025 10 16 0.00 0.00
5:15 am 05:15 Clear 31 -0.6 30 -1.1 96 96 Calm 30.27 1025 10 16 0.00 0.00
5:35 am 05:35 Clear 31 -0.7 30 -1.1 97 97 Calm 30.27 1025 10 16 0.00 0.00
5:55 am 05:55 Clear 29 -1.6 28 -2.1 96 96 Calm 30.27 1025 10 16 0.00 0.00
6:15 am 06:15 Clear 29 -1.8 28 -2.1 98 98 Calm 30.27 1025 10 16 0.00 0.00
6:35 am 06:35 Clear 30 -1.2 29 -1.6 97 97 Calm 30.27 1025 10 16 0.00 0.00
6:55 am 06:55 Clear 29 -1.8 28 -2.3 96 96 Calm 30.30 1026 10 16 0.00 0.00
7:15 am 07:15 Sunny 28 -2.2 28 -2.5 98 98 Calm 30.30 1026 10 16 0.00 0.00
7:35 am 07:35 Mostly Cloudy 27 -2.6 27 -2.8 99 99 Calm 30.30 1026 1 2 0.00 0.00
7:55 am 07:55 Sunny 29 -1.9 28 -2.4 96 96 Calm 30.33 1027 10 16 0.00 0.00
8:15 am 08:15 Sunny 31 -0.8 30 -1.1 98 98 Calm 30.33 1027 3 5 0.00 0.00
8:35 am 08:35 Sunny 32 0.2 32 -0.2 97 97 Calm 30.33 1027 7 11 0.00 0.00
8:55 am 08:55 Sunny 35 1.5 33 0.6 94 94 Calm 30.33 1027 10 16 0.00 0.00
9:15 am 09:15 Sunny 37 3 35 1.5 90 90 Calm 30.33 1027 10 16 0.00 0.00
9:35 am 09:35 Sunny 40 4.4 35 1.8 83 83 SW 3 6 30.33 1027 10 16 0.00 0.00
9:55 am 09:55 Sunny 42 5.4 35 1.5 76 76 Calm 30.36 1028 10 16 0.00 0.00
10:15 am 10:15 Sunny 44 6.8 35 1.6 70 70 Calm 30.33 1027 10 16 0.00 0.00
10:35 am 10:35 Sunny 46 7.9 31 -0.6 55 55 Calm 30.33 1027 10 16 0.00 0.00
10:55 am 10:55 Sunny 47 8.6 25 -4 41 41 S 3 6 30.33 1027 10 16 0.00 0.00
11:15 am 11:15 Sunny 48 9.1 24 -4.2 39 39 Calm 30.33 1027 10 16 0.00 0.00
11:35 am 11:35 Sunny 49 9.7 25 -4 38 38 E 6 9 30.33 1027 10 16 0.00 0.00
11:55 am 11:55 Sunny 49 9.2 23 -4.8 37 37 Calm 30.33 1027 10 16 0.00 0.00
12:15 pm 12:15 Sunny 50 10.1 24 -4.3 36 36 Calm 30.33 1027 10 16 0.00 0.00
12:30 pm 12:30 Sunny 51 10.4 25 -4.1 36 36 Calm 30.33 1027 10 16 0.00 0.00
12:55 pm 12:55 Sunny 52 11.2 25 -3.9 35 35 S 5 7 30.33 1027 10 16 0.00 0.00
1:15 pm 13:15 Sunny 52 11.3 21 -5.9 30 30 SSE 3 6 30.33 1027 10 16 0.00 0.00
1:35 pm 13:35 Sunny 52 10.9 24 -4.5 34 34 Calm 30.30 1026 10 16 0.00 0.00
1:55 pm 13:55 Sunny 53 11.7 25 -4 33 33 SW 8 13 30.30 1026 10 16 0.00 0.00
2:15 pm 14:15 Sunny 53 11.5 24 -4.6 32 32 Calm 30.30 1026 10 16 0.00 0.00
2:35 pm 14:35 Sunny 53 11.8 24 -4.6 32 32 SSW 5 7 30.30 1026 10 16 0.00 0.00
2:55 pm 14:55 Sunny 54 12 24 -4.7 31 31 Calm 30.30 1026 10 16 0.00 0.00
3:15 pm 15:15 Sunny 54 12.2 22 -5.8 28 28 S 6 9 30.30 1026 10 16 0.00 0.00
3:35 pm 15:35 Sunny 54 12 21 -6.3 28 28 Calm 30.30 1026 10 16 0.00 0.00
3:55 pm 15:55 Sunny 54 12.3 21 -5.9 28 28 W 6 9 30.30 1026 10 16 0.00 0.00
4:15 pm 16:15 Sunny 54 12 20 -6.4 27 27 SW 3 6 30.30 1026 10 16 0.00 0.00
4:35 pm 16:35 Sunny 54 12 20 -6.9 26 26 WNW 6 9 30.30 1026 10 16 0.00 0.00
4:55 pm 16:55 Sunny 54 12.1 20 -6.5 27 27 WSW 3 6 30.30 1026 10 16 0.00 0.00
5:15 pm 17:15 Sunny 53 11.9 19 -7.1 26 26 Calm 30.30 1026 10 16 0.00 0.00
5:35 pm 17:35 Sunny 53 11.6 20 -6.5 28 28 Calm 30.30 1026 10 16 0.00 0.00
5:55 pm 17:55 Sunny 53 11.4 19 -7.2 27 27 Calm 30.30 1026 10 16 0.00 0.00
6:15 pm 18:15 Sunny 50 9.8 24 -4.2 37 37 Calm 30.30 1026 10 16 0.00 0.00
6:35 pm 18:35 Clear 46 8 27 -2.6 47 47 Calm 30.33 1027 10 16 0.00 0.00
6:55 pm 18:55 Clear 42 5.6 29 -1.4 61 61 Calm 30.36 1028 10 16 0.00 0.00
7:15 pm 19:15 Clear 43 6 32 -0.2 65 65 Calm 30.36 1028 10 16 0.00 0.00
7:35 pm 19:35 Clear 39 3.8 31 -0.5 74 74 Calm 30.36 1028 10 16 0.00 0.00
7:55 pm 19:55 Clear 38 3.2 29 -1.6 71 71 Calm 30.36 1028 10 16 0.00 0.00
8:15 pm 20:15 Clear 38 3.5 29 -1.9 68 68 Calm 30.36 1028 10 16 0.00 0.00
8:35 pm 20:35 Clear 38 3.5 29 -1.9 68 68 Calm 30.36 1028 10 16 0.00 0.00
8:55 pm 20:55 Clear 36 2 28 -2.1 75 75 Calm 30.39 1029 10 16 0.00 0.00
9:15 pm 21:15 Clear 35 1.8 28 -2.3 75 75 NNE 3 6 30.39 1029 10 16 0.00 0.00
9:35 pm 21:35 Clear 35 1.9 28 -2 76 76 NNE 3 6 30.39 1029 10 16 0.00 0.00
9:55 pm 21:55 Clear 35 1.9 28 -2.4 73 73 Calm 30.39 1029 10 16 0.00 0.00
10:15 pm 22:15 Clear 34 1.2 28 -2.4 77 77 Calm 30.39 1029 10 16 0.00 0.00
10:35 pm 22:35 Clear 32 0.1 27 -2.8 81 81 Calm 30.39 1029 10 16 0.00 0.00
10:55 pm 22:55 Clear 33 0.3 28 -2.3 83 83 Calm 30.39 1029 10 16 0.00 0.00
11:15 pm 23:15 Clear 32 0.2 27 -2.9 80 80 Calm 30.39 1029 10 16 0.00 0.00
11:35 pm 23:35 Clear 32 -0.1 28 -2.4 85 85 Calm 30.39 1029 10 16 0.00 0.00
11:55 pm 23:55 Clear 31 -0.4 27 -2.7 85 85 Calm 30.39 1029 10 16 0.00 0.00

Powered by AerisWeather